Location: Burgerwiesen
(48.6500°N, 15.6167°E)
Time: 01:36:32
(UTC+00:00)

Cosmos 1603 - Pass Details

Date: 09 April 2020
Orbit: 831 x 859 km, 71.0° (Epoch: 03 June)

Event Time Altitude Azimuth Distance (km) Brightness Sun altitude
Rises 18:15:42 0° 218° (SW) 3,375 7.1 -6.4°
Reaches altitude 10° 18:18:10 10° 222° (SW) 2,442 6.4 -6.8°
Maximum altitude 18:23:42 60° 302° (WNW) 948 4.4 -7.6°
Drops below altitude 10° 18:29:15 10° 23° (NNE) 2,449 6.1 -8.5°
Sets 18:31:44 0° 27° (NNE) 3,387 6.8 -8.8°
